Regional Weather Roundup
Issued by NWS Boston, MA

Home | Current Version | Previous Version | Text Only | Print | Product List | Glossary On
Versions: 1 2 3 4 5 6 7 8 9 10 11 12 13 14 15 16 17 18 19 20 21 22 23 24 25 26 27 28 29 30 31 32 33 34 35 36 37 38 39 40 41 42 43 44 45 46 47 48 49 50
000
ASUS41 KBOX 280310
RWRBOX

REGIONAL WEATHER ROUNDUP
NATIONAL WEATHER SERVICE TAUNTON MA
1100 PM EDT MON JUL 27 2015

NOTE:  "FAIR" INDICATES FEW OR NO CLOUDS BELOW 12,000 FEET WITH NO
SIGNIFICANT WEATHER AND/OR OBSTRUCTIONS TO VISIBILITY.  THE FOLLOWING
OBSERVATION LOCATIONS DO NOT REPORT PRESENT WEATHER...PROVINCETOWN...
SMITHFIELD...BLOCK ISLAND...KEENE...AND OXFORD.

MAZALL-280400-
EASTERN MASSACHUSETTS

CITY           SKY/WX    TMP DP  RH WIND       PRES   REMARKS
BOSTON         PTCLDY    72  67  84 S9        30.01F
BEVERLY        CLEAR     72  65  78 S5        30.00F
LAWRENCE       CLEAR     71  66  84 S3        30.02F
BEDFORD        CLEAR     70  65  84 SW5       30.00S
BLUE HILL        N/A     69  67  93 S13       30.03S
NORWOOD        CLEAR     71  67  87 S6        30.01F
MARSHFIELD     CLEAR     72  70  94 SW6       30.03F
PLYMOUTH       CLEAR     70  69  97 SW9       30.03F
TAUNTON        CLEAR     68  66  93 S3        30.02F
NEW BEDFORD    CLEAR     69  67  93 SW3       30.03S
$$

MAZALL-280400-
CAPE COD AND THE ISLANDS

CITY           SKY/WX    TMP DP  RH WIND       PRES   REMARKS
FALMOUTH       CLEAR     70  68  94 SW6       30.04S
HYANNIS        CLEAR     73  69  87 S9        30.03R
CHATHAM        PTCLDY    68  67  96 SW5       30.05S
PROVINCETOWN   CLEAR     72  63  73 S8        30.03F
NANTUCKET      PTCLDY    69  66  90 S8        30.05S
MARTHAS VNYRD  PTCLDY    69  67  93 S6        30.04S
$$

MAZALL-280400-
CENTRAL AND WESTERN MASSACHUSETTS

CITY           SKY/WX    TMP DP  RH WIND       PRES   REMARKS
WORCESTER      PTCLDY    70  66  87 SW15      30.05S
FITCHBURG      CLEAR     72  66  81 CALM      30.02S
ORANGE         PTCLDY    69  68  96 CALM      30.03R FOG
SPRINGFIELD    PTCLDY    67  66  96 NE2       30.01R
WESTFIELD      FOG       68  67  96 CALM      30.02S VSB 3/4
NORTH ADAMS    PTCLDY    68  67  96 CALM      30.01F
PITTSFIELD     PTCLDY    70  67  90 CALM      30.03S
$$

RIZALL-280400-
RHODE ISLAND

CITY           SKY/WX    TMP DP  RH WIND       PRES   REMARKS
PROVIDENCE     PTCLDY    71  68  90 SW3       30.04S
NEWPORT        CLEAR     71  69  93 S5        30.03F
BLOCK ISLAND   CLEAR     72  72 100 SW8       30.04S
SMITHFIELD     CLEAR     68  66  94 S3        30.04S
WESTERLY       PTCLDY    73  70  90 SW5       30.04S
$$

CTZALL-280400-
CONNECTICUT

CITY           SKY/WX    TMP DP  RH WIND       PRES   REMARKS
BRADLEY INTL   PTCLDY    75  67  76 S7        30.01S
HARTFORD       PTCLDY    74  68  81 CALM      30.01S
BRIDGEPORT     MOCLDY    76  70  82 SW6       30.01F
DANBURY        PTCLDY    72  65  78 CALM      30.04S
GROTON         PTCLDY    71  69  93 S6        30.02F
NEW HAVEN      PTCLDY    75  70  84 S6        30.02F
CHESTER        NOT AVBL
MERIDEN        CLEAR     72  67  84 CALM      30.01F
WILLIMANTIC    PTCLDY    73  68  84 S3        30.03S
OXFORD         CLEAR     72  64  78 S5        30.05F
$$

MEZ002-015-021-024-NHZ003-005-008-011-012-014-VTZ005-008-280400-
NORTHERN NEW ENGLAND

CITY           SKY/WX    TMP DP  RH WIND       PRES   REMARKS
PORTLAND ME    CLOUDY    65  64  97 CALM      30.00R FOG
BANGOR ME      CLOUDY    65  64  97 S8        30.01S
CONCORD NH     PTCLDY    71  66  84 CALM      30.00S
MANCHESTER NH  MOCLDY    72  69  90 S5        29.99S
NASHUA NH      NOT AVBL
PORTSMOUTH NH  MOCLDY    68  65  91 S3        29.98S
JAFFREY NH     PTCLDY    69  66  90 S5        30.04S
KEENE NH       PTCLDY    68  63  83 CALM      30.02S
BURLINGTON VT  MOCLDY    73  65  75 CALM      29.97R
MT. WASHINGTON FOG       54  54 100 W26         N/A  VSB 0
$$

NYZ052-076-280400-
EASTERN NEW YORK

CITY           SKY/WX    TMP DP  RH WIND       PRES   REMARKS
ALBANY         MOCLDY    79  67  66 S7        29.98F
NEW YORK CITY  MOCLDY    79  67  66 SW6       30.01S
$$

ANZALL-280400-
MARINE OBSERVATIONS

STATION/POSITION TIME  TEMP    WIND        PRES    VSBY  WAVE
                       AIR SEA DIR/SP/G                  HT/PER
                 (UTC) (F)     (DEG/KT/KT) (MB)    (MI)  (FT/S)
BOSTON BUOY      0250   71 69  200/  8/  8 1016.3F         2/10
BUZZARDS BAY     0200          180/ 13/ 13 1017.7R
NANTUCKET SOUND  0250   73 73  210/ 12/ 14 1016.8S         1/10
MASS BAY-STELLWA 0204   70 67  200/  8/ 10   N/A    1 7/8  3/11
ISLE OF SHOALS   0200   71     240/  7/  7 1015.4S
S OF BLOCK IS    0208      70                N/A           2/11
$$

......................KEY.........................
  SKY/WX - SKY CONDITION/PRESENT WEATHER
  TMP    - TEMPERATURE IN FAHRENHEIT
  DWPT   - DEWPOINT IN FAHRENHEIT
  RH     - RELATIVE HUMIDITY IN PERCENT
  WIND   - DIRECTION AND SPEED IN MPH
  PRES   - MEAN SEA LEVEL PRESSURE IN INCHES OF HG
  WCI    - WIND CHILL INDEX
  VSB    - VISIBILITY IN MILES
  HX     - HEAT INDEX
  TC     - TEMPERATURE IN CELSIUS
  VRB    - VARIABLE WIND DIRECTION
  N/A    - NOT AVAILABLE


USA.gov is the U.S. government's official web portal to all federal, state and local government web resources and services.